Ahwaz, ایران

03:59 AM +0330 on اكتبر 24, 2018 (GMT +0330)
Ahwaz

آب و هوا گذشتهَ OIAW - مه, 2018

Change the Weather History Date:

پنجشنبه, مه 17, 2018

  Actual Average Record
Temperature  
متوسط دما 86 °F -  
ماکزیمم دما 98 °F - - ()
حداقل دما 73 °F - - ()
Cooling Degree Days 20    
Growing Degree Days 36 (Base 50)    
Moisture  
قطره شبنم 38 °F    
Average Humidity 18    
Maximum Humidity 36    
Minimum Humidity 5    
بارش  
بارش 0.00 در - - ()
فشار سطح دریا  
فشار سطح دریا 29.77 در    
باد  
سرعت باد 4 mph ()    
حداکثرسرعت باد 9 mph    
Max Gust Speed -    
ديد 6.1 مايل، ميل (در برابر كيلومتر    
رویدادها      
T = Trace of Precipitation, MM = Missing Value Source: Averaged Metar Reports

Daily Weather History Graph

Daily Weather History Graph

Search for Another Location

Airport or City:

ستاره شناسی

May. 17, 2018 Rise Set
وقت حقیقی 6:18 AM +0430 8:05 PM +0430
تاریک و روشن اجتماعی 5:51 AM +0430 8:32 PM +0430
تاریک روشن دریایی 5:19 AM +0430 9:04 PM +0430
شفق و فلق نجومی 4:45 AM +0430 9:38 PM +0430
ماه 8:01 AM +0430 (5/17) 10:13 PM +0430 (5/17)
میزان روشنایی روز 14h 40m
طول روز
13h 47m
Waxing Crescent, 5% of the Moon is Illuminated
May 17
Waxing Crescent
May 22
ربع اول
May 29
ماه کامل
Jun 6
ربع آخر
Jun 14
New

Hourly Weather History & Observations

زمان (+0430) دما قطره شبنم رطوبت فشار ديد Wind Dir سرعت باد سرعت تندباد Precip رویدادها شرايط عادی
12:00 AM 82.4 °F 42.8 °F 25% 29.77 در - غرب 2.3 mph - N/A   صاف
12:22 AM 80.6 °F 42.8 °F 26% 29.77 در - WNW 2.3 mph - N/A   صاف
12:30 AM 80.6 °F 42.8 °F 26% 29.77 در - WNW 2.3 mph - N/A   صاف
1:00 AM 80.6 °F 42.8 °F 26% 29.74 در - غرب 2.3 mph - N/A   صاف
1:30 AM 80 °F 42 °F 16% 29.77 در 6 mi شمال غربی 4.5 mph - -  
1:30 AM 80.6 °F 42.8 °F 26% 29.74 در - شمال غربی 4.6 mph - N/A   صاف
2:30 AM 78.8 °F 42.8 °F 28% 29.74 در - شمال غربی 4.6 mph - N/A   صاف
3:30 AM 78.8 °F 42.8 °F 28% 29.74 در - شمال غربی 4.6 mph - N/A   صاف
4:30 AM 76 °F 44 °F 21% 29.77 در 6 mi شمال غربی 4.5 mph - -  
4:30 AM 77.0 °F 44.6 °F 32% 29.74 در - شمال غربی 4.6 mph - N/A   صاف
5:30 AM 75.2 °F 44.6 °F 34% 29.74 در - شمال غربی 4.6 mph - N/A   صاف
6:25 AM 73.4 °F 44.6 °F 36% 29.77 در - شمال غربی 2.3 mph - N/A   صاف
6:30 AM 73.4 °F 44.6 °F 36% 29.77 در - شمال غربی 2.3 mph - N/A   صاف
7:22 AM 75.2 °F 46.4 °F 36% 29.80 در - شمال غربی 2.3 mph - N/A   صاف
7:30 AM 74 °F 46 °F 26% 29.80 در 6 mi شمال غربی 2.2 mph - -  
7:30 AM 75.2 °F 46.4 °F 36% 29.80 در - شمال غربی 2.3 mph - N/A   صاف
7:53 AM 77.0 °F 46.4 °F 34% 29.80 در - شمال غربی 2.3 mph - N/A   صاف
8:00 AM 77.0 °F 46.4 °F 34% 29.80 در - شمال غربی 2.3 mph - N/A   صاف
8:23 AM 77.0 °F 46.4 °F 34% 29.80 در - NNW 4.6 mph - N/A   صاف
8:30 AM 77.0 °F 46.4 °F 34% 29.80 در - NNW 4.6 mph - N/A   صاف
8:52 AM 80.6 °F 46.4 °F 30% 29.80 در - NNW 2.3 mph - N/A   صاف
9:22 AM 82.4 °F 46.4 °F 28% 29.80 در - شمال غربی 4.6 mph - N/A   صاف
9:30 AM 82.4 °F 46.4 °F 28% 29.80 در - شمال غربی 4.6 mph - N/A   صاف
9:52 AM 84.2 °F 46.4 °F 27% 29.80 در - NNW 2.3 mph - N/A   صاف
10:00 AM 84.2 °F 46.4 °F 27% 29.80 در - NNW 2.3 mph - N/A   صاف
10:21 AM 87.8 °F 44.6 °F 22% 29.83 در - متغير 2.3 mph - N/A   صاف
10:30 AM 88 °F 45 °F 13% 29.84 در 6 mi 2.2 mph - -  
10:30 AM 87.8 °F 44.6 °F 22% 29.83 در - متغير 2.3 mph - N/A   صاف
11:00 AM 89.6 °F 42.8 °F 20% 29.83 در - NNW 4.6 mph - N/A   صاف
11:22 AM 91.4 °F 41.0 °F 17% 29.83 در - شمال غربی 4.6 mph - N/A   صاف
11:30 AM 91.4 °F 41.0 °F 17% 29.83 در - شمال غربی 4.6 mph - N/A   صاف
11:55 AM 93.2 °F 39.2 °F 15% 29.83 در - غرب 6.9 mph - N/A   صاف
12:00 PM 93.2 °F 39.2 °F 15% 29.83 در - غرب 6.9 mph - N/A   صاف
12:22 PM 95.0 °F 37.4 °F 13% 29.80 در - WSW 4.6 mph - N/A   صاف
12:30 PM 95.0 °F 37.4 °F 13% 29.80 در - WSW 4.6 mph - N/A   صاف
1:00 PM 95.0 °F 37.4 °F 13% 29.80 در - غرب 4.6 mph - N/A   صاف
1:21 PM 95.0 °F 35.6 °F 12% 29.80 در - WNW 4.6 mph - N/A   صاف
1:30 PM 96 °F 35 °F 6% 29.81 در 6 mi WNW 4.5 mph - -  
1:30 PM 95.0 °F 35.6 °F 12% 29.80 در - WNW 4.6 mph - N/A   صاف
1:53 PM 96.8 °F 37.4 °F 13% 29.77 در - جنوب غربی 4.6 mph - N/A   صاف
2:00 PM 96.8 °F 37.4 °F 13% 29.77 در - جنوب غربی 4.6 mph - N/A   صاف
2:22 PM 96.8 °F 33.8 °F 11% 29.77 در - غرب 4.6 mph - N/A   صاف
2:30 PM 96.8 °F 33.8 °F 11% 29.77 در - غرب 4.6 mph - N/A   صاف
3:00 PM 96.8 °F 32.0 °F 10% 29.77 در - شمال 4.6 mph - N/A   صاف
3:23 PM 96.8 °F 35.6 °F 12% 29.74 در - غرب 9.2 mph - N/A   صاف
3:30 PM 96.8 °F 35.6 °F 12% 29.74 در - غرب 9.2 mph - N/A   صاف
3:55 PM 96.8 °F 35.6 °F 12% 29.74 در - جنوب غربی 6.9 mph - N/A   صاف
4:00 PM 96.8 °F 35.6 °F 12% 29.74 در - جنوب غربی 6.9 mph - N/A   صاف
4:20 PM 96.8 °F 32.0 °F 10% 29.74 در - شمال غربی 6.9 mph - N/A   صاف
4:30 PM 97 °F 33 °F 5% 29.75 در 6 mi شمال غربی 6.7 mph - -  
4:30 PM 96.8 °F 32.0 °F 10% 29.74 در - شمال غربی 6.9 mph - N/A   صاف
4:54 PM 98.6 °F 33.8 °F 10% 29.74 در - جنوب غربی 4.6 mph - N/A   صاف
5:00 PM 98.6 °F 33.8 °F 10% 29.74 در - جنوب غربی 4.6 mph - N/A   صاف
5:21 PM 98.6 °F 32.0 °F 10% 29.74 در - غرب 4.6 mph - N/A   صاف
5:30 PM 98.6 °F 32.0 °F 10% 29.74 در - غرب 4.6 mph - N/A   صاف
6:00 PM 96.8 °F 32.0 °F 10% 29.74 در - غرب 4.6 mph - N/A   صاف
6:21 PM 98.6 °F 32.0 °F 10% 29.71 در - غرب 4.6 mph - N/A   صاف
6:30 PM 98.6 °F 32.0 °F 10% 29.71 در - غرب 4.6 mph - N/A   صاف
6:52 PM 96.8 °F 32.0 °F 10% 29.71 در 6.2 mi WSW 6.9 mph - N/A   ابرهاى پراكنده
7:00 PM 96.8 °F 32.0 °F 10% 29.71 در 6.2 mi WSW 6.9 mph - N/A   ابرهاى پراكنده
7:24 PM 95.0 °F 33.8 °F 12% 29.71 در - WNW 6.9 mph - N/A   صاف
7:30 PM 95 °F 33 °F 5% 29.74 در 6 mi WNW 6.7 mph - -  
7:30 PM 95.0 °F 33.8 °F 12% 29.71 در - WNW 6.9 mph - N/A   صاف
7:50 PM 93.2 °F 33.8 °F 12% 29.74 در 6.2 mi غرب 4.6 mph - N/A   ابرهاى پراكنده
8:23 PM 93.2 °F 32.0 °F 11% 29.74 در - غرب 6.9 mph - N/A   صاف
8:30 PM 93.2 °F 32.0 °F 11% 29.74 در - غرب 6.9 mph - N/A   صاف
9:00 PM 91.4 °F 32.0 °F 12% 29.74 در - غرب 6.9 mph - N/A   صاف
9:22 PM 89.6 °F 32.0 °F 13% 29.74 در - غرب 4.6 mph - N/A   صاف
9:30 PM 89.6 °F 32.0 °F 13% 29.74 در - غرب 4.6 mph - N/A   صاف
9:53 PM 89.6 °F 32.0 °F 13% 29.74 در - غرب 4.6 mph - N/A   صاف
10:00 PM 89.6 °F 32.0 °F 13% 29.74 در - غرب 4.6 mph - N/A   صاف
10:24 PM 87.8 °F 33.8 °F 15% 29.74 در - غرب 4.6 mph - N/A   صاف
10:30 PM 88 °F 36 °F 8% 29.77 در 6 mi غرب 4.5 mph - -  
10:30 PM 87.8 °F 33.8 °F 15% 29.74 در - غرب 4.6 mph - N/A   صاف
10:52 PM 86.0 °F 37.4 °F 18% 29.77 در - غرب 4.6 mph - N/A   صاف
11:00 PM 86.0 °F 37.4 °F 18% 29.77 در - غرب 4.6 mph - N/A   صاف
11:20 PM 86.0 °F 37.4 °F 18% 29.77 در - غرب 2.3 mph - N/A   صاف
11:30 PM 86.0 °F 37.4 °F 18% 29.77 در - غرب 2.3 mph - N/A   صاف
11:51 PM 82.4 °F 39.2 °F 21% 29.77 در - غرب 2.3 mph - N/A   صاف